Location: Diebersbach
(48.5163°N, 8.0558°E)
Time: 21:54:46
(UTC+00:00)

FENGYUN 1C DEB - Pass Details

Date: 04 February 2022
Orbit: 690 x 984 km, 98.6° (Epoch: 20 May)

Event Time Altitude Azimuth Distance (km) Brightness Sun altitude
Rises 19:11:50 0° 216° (SW) 3,672 ? -26.8°
Reaches altitude 10° 19:15:22 10° 237° (WSW) 2,738 ? -27.4°
Maximum altitude 19:19:05 16° 274° (W) 2,309 ? -28.0°
Drops below altitude 10° 19:22:47 10° 311° (NW) 2,726 ? -28.6°
Sets 19:26:20 0° 332° (NNW) 3,648 ? -29.2°
